RH
4 7 10 19 30 50 96 100 100 100 95 94 100 100 100 100 99 88 89 100 100 100 100 99 100 100 100 92 88 80 74 76 90 100 86 68 62 49 54 62 59 55 47
4 7 8 12 58 83 100 100 100 100 97 100 100 100 100 100 91 76 72 100 100 100 100 100 95 85 77 77 75 79 96 93 88 68 64 64 52 54 45 57 49 50 53
5 6 10 61 99 100 100 97 100 97 90 98 100 100 100 95 89 54 72 100 100 100 98 89 67 99 100 100 100 95 97 82 64 73 52 57 56 42 47 39 40 37 41
4 9 13 97 100 100 100 82 100 100 100 100 100 100 100 89 62 75 70 75 98 92 78 80 99 100 100 100 100 83 71 85 76 66 62 62 51 54 42 29 35 32 31
7 14 84 100 100 100 100 100 100 100 100 100 100 100 100 99 68 44 48 82 82 77 87 100 100 100 100 100 88 83 82 73 74 84 85 75 59 59 50 47 41 26 20
11 90 100 100 100 100 100 100 100 99 100 100 100 100 100 94 78 57 56 62 69 86 100 100 100 100 100 100 72 63 85 79 56 54 87 84 76 76 52 60 34 30 30
14 93 100 100 100 100 100 100 100 100 100 100 96 100 98 100 79 56 55 57 53 99 100 100 100 100 100 100 98 100 99 97 100 96 71 54 56 72 62 64 37 39 38
53 78 100 100 100 100 96 100 100 100 100 100 100 100 96 100 80 62 64 65 92 100 100 100 100 98 93 100 100 100 100 97 99 100 82 97 90 96 79 64 74 76 85
100 100 100 100 100 73 99 100 100 100 100 100 100 100 83 91 100 100 100 100 100 91 93 100 100 100 100 100 100 100 100 100 98 96 91 100 94 79 58 83 89 96 96
100 100 100 100 91 92 99 100 100 100 100 100 100 100 100 100 100 100 100 100 100 100 98 100 100 100 100 100 100 100 100 100 100 100 100 98 83 80 100 100 100 100 100
100 100 100 100 98 89 100 100 100 100 100 100 100 100 100 100 100 100 100 100 100 100 100 100 100 100 100 100 100 100 100 98 100 92 100 89 98 99 100 100 100 100 100
100 100 100 100 100 100 100 100 100 100 100 100 100 100 100 100 100 100 95 100 100 100 100 100 100 100 100 100 100 98 98 90 75 71 82 100 100 100 100 100 100 100 82
100 100 95 100 80 95 100 100 100 100 100 100 100 100 100 100 91 100 100 100 100 100 100 100 99 100 100 89 100 100 100 100 100 100 100 100 100 100 100 100 92 100 100
100 100 100 100 99 100 98 100 100 100 100 100 100 100 100 100 100 100 100 100 100 100 100 100 100 100 100 100 97 99 100 100 100 100 100 100 100 96 87 89 97 98 96
100 100 100 100 100 100 100 100 100 100 100 100 100 100 100 100 100 100 100 100 100 100 100 100 100 100 100 100 100 100 100 100 100 100 100 100 100 100 100 99 100 87 78
100 100 100 100 100 100 100 100 100 100 100 100 100 87 100 100 100 100 100 100 100 100 100 100 100 100 100 100 100 100 100 100 100 100 100 100 100 100 100 97 99 100 100
31 48 99 100 100 100 100 100 100 100 100 100 100 100 97 100 100 100 100 100 100 100 100 100 100 100 100 100 100 100 100 100 100 100 100 100 100 100 100 100 100 100 100
40 41 57 100 100 100 100 100 100 100 100 100 100 100 100 100 100 100 93 91 100 100 100 100 100 100 100 100 100 100 100 100 100 100 100 100 100 100 100 100 100 97 97
27 33 33 52 100 100 100 100 100 100 100 100 100 100 100 100 100 100 100 100 97 94 100 100 100 100 100 100 100 100 100 100 100 100 100 100 100 100 100 100 100 88 100
66 48 44 68 72 100 100 100 100 100 100 100 100 100 100 100 100 100 100 100 100 100 100 100 100 100 100 100 100 100 100 100 100 100 100 100 100 100 100 100 100 98 94
82 76 73 52 64 92 99 100 100 100 100 100 100 100 100 100 100 100 100 100 100 100 100 100 100 100 100 100 100 100 100 100 98 96 100 100 100 100 100 100 100 98 92
76 76 84 79 76 65 52 55 69 97 100 100 100 98 93 98 100 100 100 100 100 100 100 100 100 100 100 100 100 100 100 100 100 100 100 100 100 100 100 100 100 95 100
45 73 73 79 82 65 78 79 66 63 60 73 82 87 100 100 100 99 100 100 100 100 100 100 100 100 100 100 100 100 100 100 100 100 100 100 100 100 100 100 100 100 95
25 21 26 29 41 61 81 77 71 58 55 68 59 68 70 74 78 87 99 99 96 98 96 95 86 86 100 100 100 100 100 100 100 100 100 98 100 100 99 94 84 71 68
41 47 41 30 20 18 27 32 31 42 51 64 71 56 58 68 80 91 98 95 100 100 89 88 88 86 99 100 100 100 100 100 100 100 92 85 84 82 65 60 56 57 59
44 42 40 35 35 31 23 16 13 16 26 39 34 52 50 53 49 49 58 69 83 85 90 88 100 100 100 100 100 92 90 92 90 75 70 69 73 60 54 58 53 46 30
Wind_Speed
64 68 73 79 87 86 99 99 67 65 68 60 58 55 52 61 64 58 56 51 53 60 62 63 61 57 57 57 62 61 59 60 64 63 67 70 71 70 68 66 65 64 60
70 76 72 77 87 74 79 92 76 58 60 56 57 55 66 67 61 57 57 52 55 56 59 53 50 51 53 56 59 60 62 63 67 70 72 75 72 66 61 61 62 58 56
85 84 76 85 87 89 82 94 90 78 61 60 58 64 68 63 49 62 53 54 58 57 53 51 50 49 53 55 56 58 64 68 72 72 71 67 62 60 58 60 57 60 56
91 90 89 98 96 91 100 91 79 73 66 54 60 70 68 50 50 53 58 63 57 59 51 52 49 49 52 55 59 63 67 68 69 66 66 65 64 59 64 61 59 59 63
94 94 110 100 93 88 87 82 64 65 70 59 64 70 66 58 56 50 47 55 54 53 45 49 52 52 58 59 62 69 66 66 69 69 66 66 64 63 63 64 65 68 68
96 104 106 90 83 78 69 66 76 46 61 65 67 71 70 66 63 56 64 60 58 50 51 52 53 57 60 63 65 63 68 71 68 64 67 69 67 66 68 70 67 67 66
102 111 105 90 85 83 69 70 60 64 65 65 66 69 68 63 61 63 58 64 66 58 55 55 57 57 57 64 66 68 69 69 68 70 73 75 68 63 69 69 75 71 74
109 118 104 93 91 88 68 68 68 56 68 75 63 73 66 62 58 56 65 66 65 66 59 55 56 58 62 62 67 66 69 69 70 69 65 60 61 65 65 67 66 66 68
109 109 102 104 95 86 75 75 68 67 58 65 74 72 72 68 66 67 69 60 55 58 55 53 56 59 65 59 62 63 66 67 68 65 64 65 70 70 70 65 66 71 74
111 112 115 113 92 95 79 79 74 74 60 64 73 68 61 59 65 57 54 52 53 55 53 56 62 65 65 64 58 71 69 67 59 63 74 78 76 73 70 73 75 77 76
106 115 111 109 102 94 84 72 73 76 69 62 69 81 67 62 66 64 64 64 63 63 59 65 62 61 64 65 78 77 77 74 74 77 77 81 76 76 76 76 79 81 84
111 113 113 103 100 88 82 84 75 70 66 66 74 78 75 77 72 68 70 68 72 72 74 76 72 75 79 83 86 86 84 85 85 87 85 80 83 77 82 84 86 91 98
107 106 113 96 91 86 83 75 74 79 75 73 79 74 78 79 79 70 75 86 80 78 79 79 78 80 83 82 83 82 85 89 86 88 87 85 86 87 86 91 98 99 102
114 108 109 105 99 94 86 81 82 84 84 84 84 86 82 82 80 80 80 84 82 82 83 88 88 89 93 93 94 93 92 92 92 86 87 90 91 95 99 101 102 106 110
130 121 106 105 104 99 96 89 90 86 88 90 90 92 88 85 81 84 83 85 85 85 87 92 93 94 94 92 89 92 91 89 88 91 93 95 95 99 102 107 109 116 121
135 130 132 109 105 111 99 98 100 99 94 93 94 94 88 89 90 88 88 86 87 86 94 96 97 95 93 94 93 94 92 93 96 99 100 100 105 107 110 115 119 122 123
117 126 137 133 122 112 115 108 106 105 101 98 95 93 101 93 99 101 101 98 97 95 93 91 93 98 99 100 97 96 100 101 103 104 107 108 109 112 115 119 123 126 131
108 118 126 138 137 124 118 124 122 115 112 113 111 107 106 110 109 101 105 110 110 108 107 106 106 108 107 106 107 105 109 110 112 113 115 118 122 124 126 126 130 135 138
78 111 115 129 140 138 133 130 130 128 126 122 124 124 121 121 120 120 126 121 122 124 124 120 119 118 117 118 120 120 121 122 122 123 124 126 128 129 134 134 140 143 144
58 57 106 130 138 147 147 145 133 129 134 131 129 133 135 130 131 127 125 130 131 130 128 123 122 124 124 124 127 129 131 132 131 131 132 135 138 139 142 146 146 150 151
49 59 71 80 115 137 146 146 146 143 134 138 134 136 138 139 137 139 137 135 137 139 137 138 134 132 130 130 131 134 134 136 138 139 142 145 148 149 148 148 149 151 155
59 59 63 67 76 83 119 125 137 151 146 144 141 149 155 154 146 139 138 139 144 143 142 143 142 143 141 140 139 139 141 142 144 147 148 148 147 148 150 148 150 150 155
60 69 75 74 77 77 81 92 96 106 120 140 150 151 146 144 147 151 151 146 144 145 147 147 146 147 149 149 150 150 151 150 149 146 150 153 155 153 151 150 149 149 155
25 40 57 67 76 86 91 94 95 98 101 107 108 113 120 128 144 163 155 158 152 154 154 156 159 156 158 157 156 154 154 153 154 155 159 160 160 157 156 159 161 164 155
11 18 26 38 53 68 81 90 96 103 107 110 116 115 111 115 122 127 134 136 140 146 149 153 156 157 158 156 156 156 158 161 162 162 159 159 156 153 152 152 154 150 138
25 21 20 23 28 39 54 70 83 91 98 107 113 119 121 120 120 121 124 126 122 128 131 134 135 139 146 146 147 145 143 138 142 146 145 143 141 147 144 135 134 129 116
Wind_Direction
209 199 200 197 206 199 194 202 205 215 225 229 230 229 238 241 243 244 247 243 246 247 250 255 260 266 268 269 267 269 276 277 279 285 284 290 289 289 290 291 293 294 297
205 199 200 197 200 194 204 206 205 207 212 218 223 232 240 240 237 244 245 238 238 239 247 255 263 265 267 268 270 275 279 279 279 282 286 288 289 289 291 288 290 292 294
201 196 196 186 191 195 199 204 208 215 226 231 226 231 240 241 234 244 240 235 240 244 246 254 264 278 274 273 278 278 278 280 283 283 284 286 286 290 289 290 290 291 291
199 190 191 180 187 195 202 201 207 211 222 225 222 232 236 231 228 229 236 239 237 242 251 260 272 276 276 276 277 278 280 282 282 283 283 284 286 288 290 291 290 290 291
188 183 176 182 190 198 204 204 201 218 229 228 230 232 237 238 236 237 243 242 243 260 260 274 274 273 274 276 278 281 278 277 280 282 283 285 286 286 289 288 291 292 293
181 171 175 182 186 190 184 189 192 191 226 227 230 235 235 237 240 243 236 237 256 263 268 272 268 270 270 275 276 275 277 276 279 279 281 283 287 287 288 289 292 295 298
176 177 182 182 186 188 186 189 194 216 218 225 233 235 238 230 237 236 240 244 261 263 268 265 271 266 269 273 274 277 276 278 277 277 281 283 282 280 285 289 293 292 293
176 179 179 179 183 181 179 175 189 199 206 216 218 226 231 224 224 233 246 254 257 258 261 263 262 262 269 271 275 269 271 273 275 279 281 275 278 281 283 284 285 287 291
175 179 182 185 186 178 178 182 194 206 204 214 221 224 233 236 237 249 252 252 256 254 249 251 257 262 268 266 264 262 263 269 274 273 271 271 275 281 283 278 281 287 284
176 179 184 187 178 181 181 182 192 201 201 206 214 217 223 229 236 237 238 240 247 245 243 249 258 259 258 258 264 257 257 262 259 260 261 270 274 277 276 280 283 284 282
175 180 185 181 182 186 182 188 194 197 204 204 211 216 223 228 228 229 237 242 244 243 245 247 247 248 246 247 246 252 256 257 257 263 264 270 273 276 273 277 279 283 282
178 181 176 179 182 187 188 192 193 200 204 206 210 216 222 224 222 231 238 243 244 246 247 243 242 239 242 245 250 258 263 263 264 264 265 270 272 269 271 278 279 280 288
182 183 180 183 185 185 191 192 198 200 203 210 210 214 219 226 227 227 232 240 241 246 247 244 244 251 247 251 255 260 260 260 263 264 265 267 270 272 276 276 279 282 286
187 192 189 189 192 196 196 202 200 202 207 210 213 215 221 225 228 233 230 238 242 244 242 241 247 252 253 254 256 258 261 259 261 263 263 266 268 270 274 277 280 284 287
192 191 200 197 200 205 208 205 205 210 212 213 217 217 218 221 225 225 227 234 237 240 240 239 245 250 249 251 253 256 257 256 258 258 264 268 270 273 275 279 282 287 291
200 197 201 206 211 212 212 216 217 218 220 220 221 224 220 220 221 223 227 232 237 242 242 242 244 245 249 252 254 255 254 256 260 262 264 267 271 277 278 282 285 287 289
204 208 210 212 210 217 220 220 220 221 220 219 225 229 227 223 223 227 229 231 234 238 243 246 248 253 255 252 249 250 253 257 258 260 263 267 272 275 276 280 283 286 288
205 208 212 214 215 218 223 225 226 228 231 229 229 231 233 229 230 233 239 239 238 238 240 244 245 247 250 253 254 255 257 260 263 266 269 270 273 276 280 281 283 286 288
213 212 213 216 217 221 224 226 231 231 234 235 236 237 239 239 240 243 245 242 243 242 243 246 247 248 250 252 254 257 260 263 266 269 272 272 275 278 281 282 283 286 288
229 225 220 216 219 220 224 226 230 232 236 236 237 240 241 243 243 243 243 243 242 243 245 247 248 250 252 254 257 259 260 262 265 268 271 274 276 278 279 280 282 283 287
239 236 226 225 227 226 227 230 230 233 235 236 238 239 241 242 242 244 242 242 242 242 245 248 251 253 254 257 260 262 263 266 268 269 270 273 275 276 277 278 281 285 284
250 248 248 237 231 231 232 234 236 235 237 238 242 242 241 242 242 242 242 243 243 245 247 249 253 255 257 259 260 263 265 267 268 270 271 272 274 276 278 280 282 285 285
245 245 247 246 247 243 237 234 236 237 238 241 243 243 241 242 243 244 242 242 245 247 250 251 254 256 258 259 261 264 266 267 268 270 272 273 274 276 278 281 284 284 286
258 251 251 251 248 247 247 246 247 245 242 241 243 241 244 247 248 245 247 247 248 250 253 253 254 256 258 260 261 264 266 267 268 270 270 273 274 275 278 280 280 284 288
309 265 261 259 255 252 252 252 249 246 246 246 247 247 244 244 245 245 246 247 251 252 253 256 258 258 259 260 261 264 265 265 268 271 272 273 276 276 277 280 282 283 283
350 344 320 294 275 261 255 252 251 251 251 251 250 248 248 247 246 245 244 246 248 251 252 253 254 256 257 257 261 263 265 267 267 268 271 273 275 276 278 278 280 280 281